Flag for Germany Weather past 2 weeks in Bühl, Baden-Württemberg, Germany

Now
55 °F

Clear.


Feels Like: 53 °F
Forecast: 44 / 66 °F
Wind: 8 mph from Southwest

Location: Karlsruhe - Baden Wurttemberg

Current Time: Aug 23, 2014 at 6:20:50 AM

Latest Report: Aug 23, 2014 at 5:50 AM


Visibility: 10 mi

Pressure: 29.98 "Hg

Humidity: 77%

Dew point: 48 °F

Location of BühlLocation

Historic Weather in Bühl — Graph

°F

Bühl temperature yesterday

Maximum temperature yesterday: 70 °F (at 5:20 PM)
Minimum temperature yesterday: 48 °F (at 3:50 AM)
Average temperature yesterday: 59 °F

Past Weeks' High & Low Weather Summary

 TemperatureHumidityPressure
High82 °F (Aug 10, 3:50 PM)94% (Aug 8, 4:50 AM)30.15 "Hg (Aug 8, 4:50 AM)
Low46 °F (Aug 20, 6:50 AM)33% (Aug 11, 6:20 PM)29.65 "Hg (Aug 13, 9:50 AM)
Average63 °F68%29.94 "Hg
* Reported Aug 8 4:50 AM — Aug 23 4:50 AM, Bühl, Weather by CustomWeather, © 2014

Note: Actual official high and low records may vary slightly from our data, if they occured in-between our weather recording intervals... More about our weather records

Advertising

Bühl weather history for previous 24 hours

 ConditionsComfort  
Time TempWeatherWind HumidityBarometerVisibility
4:50 AM
Aug 23
55 °FPassing clouds.7 mph77%29.98 "HgN/A
11:20 PM
Aug 22
59 °FClear.6 mph63%29.95 "Hg10 mi
10:50 PM59 °FClear.6 mph68%29.95 "Hg10 mi
10:20 PM59 °FClear.5 mph63%29.95 "Hg10 mi
9:50 PM59 °FClear.3 mph63%29.95 "Hg10 mi
9:20 PM59 °FSunny.5 mph68%29.95 "Hg6 mi
8:50 PM63 °FSunny.5 mph56%29.95 "Hg10 mi
8:20 PM64 °FSunny.3 mph52%29.95 "Hg10 mi
7:50 PM68 °FSunny.2 mph46%29.95 "Hg10 mi
7:20 PM68 °FSunny.3 mph46%29.95 "Hg10 mi
6:50 PM68 °FSunny.2 mph43%29.95 "Hg10 mi
6:20 PM70 °FSunny.3 mph40%29.95 "Hg10 mi
5:50 PM68 °FPassing clouds.5 mph40%29.95 "HgN/A
5:20 PM70 °FSunny.3 mph40%29.95 "Hg10 mi
4:50 PM68 °FSunny.1 mph43%29.95 "Hg10 mi
4:20 PM68 °FSunny.3 mph43%29.95 "Hg10 mi
3:50 PM68 °FSunny.2 mph40%29.98 "Hg10 mi
3:20 PM68 °FSunny.1 mph40%29.98 "Hg10 mi
2:50 PM68 °FSunny.2 mph46%29.98 "Hg10 mi
2:20 PM66 °FSunny.3 mph46%29.98 "Hg10 mi
1:50 PM68 °FPassing clouds.5 mph40%29.98 "HgN/A
1:20 PM68 °FPassing clouds.5 mph43%29.98 "HgN/A
12:50 PM66 °FPassing clouds.6 mph49%30.01 "HgN/A
12:20 PM64 °FPassing clouds.7 mph60%30.01 "HgN/A
11:50 AM63 °FPassing clouds.5 mph59%30.01 "HgN/A
11:20 AM61 °FPassing clouds.6 mph68%30.01 "HgN/A
10:50 AM59 °FPassing clouds.5 mph68%30.01 "HgN/A
10:20 AM59 °FSunny.8 mph68%30.01 "Hg10 mi
9:50 AM57 °FPassing clouds.5 mph77%30.01 "HgN/A
9:20 AM55 °FSunny.3 mph82%30.01 "Hg10 mi
8:50 AM54 °FSunny.5 mph82%30.01 "Hg10 mi
8:20 AM52 °FSunny.1 mph88%30.01 "Hg10 mi
7:50 AM52 °FSunny.2 mph82%30.01 "Hg10 mi
7:20 AM52 °FPassing clouds.5 mph82%30.01 "HgN/A
6:50 AM50 °FClear.2 mph88%30.01 "Hg10 mi
6:20 AM48 °FClear.2 mph87%30.01 "Hg10 mi
Weather by CustomWeather, © 2014

See weather overviewHow to use our weather pages